TimeEST,TemperatureF,Dew PointF,Humidity,Sea Level PressureIn,VisibilityMPH,Wind Direction,Wind SpeedMPH,Gust SpeedMPH,PrecipitationIn,Events,Conditions,WindDirDegrees,DateUTC
12:53 AM,30.0,23.0,75,30.49,10.0,Calm,Calm,-,N/A,,Clear,0,2012-11-15 05:53:00
1:53 AM,30.0,23.0,75,30.47,10.0,Calm,Calm,-,N/A,,Clear,0,2012-11-15 06:53:00
2:53 AM,30.9,23.0,72,30.48,10.0,Calm,Calm,-,N/A,,Clear,0,2012-11-15 07:53:00
3:53 AM,30.9,23.0,72,30.47,10.0,Calm,Calm,-,N/A,,Clear,0,2012-11-15 08:53:00
4:53 AM,30.9,24.1,76,30.47,10.0,Calm,Calm,-,N/A,,Clear,0,2012-11-15 09:53:00
5:53 AM,30.0,23.0,75,30.46,10.0,Calm,Calm,-,N/A,,Clear,0,2012-11-15 10:53:00
6:53 AM,28.9,23.0,78,30.48,10.0,Calm,Calm,-,N/A,,Clear,0,2012-11-15 11:53:00
7:53 AM,33.1,25.0,72,30.48,10.0,Calm,Calm,-,N/A,,Clear,0,2012-11-15 12:53:00
8:53 AM,37.9,26.1,62,30.46,10.0,NE,8.1,-,N/A,,Clear,40,2012-11-15 13:53:00
9:53 AM,39.9,27.0,60,30.47,10.0,Variable,3.5,-,N/A,,Clear,0,2012-11-15 14:53:00
10:53 AM,42.1,25.0,51,30.45,10.0,East,5.8,-,N/A,,Clear,80,2012-11-15 15:53:00
11:53 AM,44.1,24.1,45,30.41,10.0,NNE,5.8,-,N/A,,Clear,20,2012-11-15 16:53:00
12:53 PM,44.1,23.0,43,30.38,10.0,Calm,Calm,-,N/A,,Clear,0,2012-11-15 17:53:00
1:53 PM,45.0,21.9,40,30.38,10.0,ENE,5.8,-,N/A,,Clear,60,2012-11-15 18:53:00
2:53 PM,46.0,21.0,37,30.38,10.0,Calm,Calm,-,N/A,,Clear,0,2012-11-15 19:53:00
3:53 PM,45.0,21.0,39,30.36,10.0,Calm,Calm,-,N/A,,Clear,0,2012-11-15 20:53:00
4:53 PM,43.0,21.9,43,30.36,10.0,NNE,3.5,-,N/A,,Clear,20,2012-11-15 21:53:00
5:53 PM,39.9,23.0,51,30.37,10.0,Calm,Calm,-,N/A,,Clear,0,2012-11-15 22:53:00
6:53 PM,37.9,25.0,60,30.37,10.0,Calm,Calm,-,N/A,,Clear,0,2012-11-15 23:53:00
7:53 PM,35.1,25.0,67,30.37,10.0,Calm,Calm,-,N/A,,Clear,0,2012-11-16 00:53:00
8:53 PM,34.0,26.1,73,30.36,10.0,Calm,Calm,-,N/A,,Clear,0,2012-11-16 01:53:00
9:53 PM,33.1,26.1,75,30.35,10.0,Calm,Calm,-,N/A,,Clear,0,2012-11-16 02:53:00
10:53 PM,33.1,26.1,75,30.34,10.0,Calm,Calm,-,N/A,,Clear,0,2012-11-16 03:53:00
11:53 PM,33.1,25.0,72,30.34,10.0,Calm,Calm,-,N/A,,Clear,0,2012-11-16 04:53:00